Temperature
14 15 15 16 19 20 20 19 19 18 19 17 17 17 19 20 20 19 15 15 15 15 15 15 15 15 15 15 15 15 15 15 15 15 15 15 15 15 15 15 15 15 15 15 15 15 15 15 15
14 15 15 17 19 20 19 19 18 18 17 15 16 16 18 18 16 15 14 14 14 14 14 15 15 15 15 15 15 15 15 15 15 15 15 15 15 15 15 15 15 15 15 15 15 15 15 15 15
14 14 15 18 18 19 19 18 17 16 15 15 16 16 16 16 14 14 14 14 14 14 14 14 15 15 15 15 15 15 15 15 15 15 15 15 15 15 15 15 15 15 15 15 15 15 15 15 14
13 14 15 18 17 17 17 17 16 16 15 15 15 16 15 13 13 13 14 14 14 14 14 14 14 15 15 15 15 15 15 15 15 15 15 15 15 15 15 15 15 15 15 15 14 15 14 14 14
13 15 17 17 17 17 16 15 15 16 16 15 15 16 15 13 13 13 13 13 13 13 14 14 14 14 14 15 15 15 15 15 15 15 15 15 15 15 15 15 15 14 14 14 14 14 14 14 14
13 15 17 17 16 16 15 14 14 15 15 15 14 15 15 13 13 13 13 13 13 13 13 14 14 14 14 14 14 14 14 15 15 14 14 14 14 14 15 14 14 14 14 14 14 14 14 14 14
14 15 16 16 15 15 15 14 14 15 15 14 13 14 14 13 12 12 12 13 13 13 13 13 13 14 14 14 14 14 14 14 14 14 14 14 14 14 14 14 14 14 14 14 14 14 14 14 14
12 14 14 15 15 15 14 13 13 13 14 13 12 14 14 12 12 12 12 12 12 12 13 13 13 13 13 13 14 14 14 14 14 14 14 14 14 14 14 14 14 14 14 14 14 14 14 14 13
11 14 14 14 14 14 13 13 13 12 12 12 12 12 12 12 11 11 12 12 12 12 12 13 13 13 13 13 13 13 13 13 14 14 14 14 13 14 14 14 14 14 14 14 14 14 13 13 13
12 13 13 13 13 14 13 12 12 12 13 13 12 11 11 11 11 11 11 11 11 12 12 12 12 13 13 13 13 13 13 13 13 13 13 13 13 13 13 14 13 13 13 13 13 13 13 13 13
12 12 12 12 12 11 12 12 11 12 13 13 12 11 11 11 10 10 11 11 11 11 11 12 12 12 12 12 12 12 13 13 13 13 13 13 13 13 13 13 13 13 13 13 13 13 13 12 12
11 11 11 11 10 10 11 11 11 11 12 11 11 11 10 10 10 10 10 10 11 11 11 11 12 12 12 12 12 12 12 12 12 12 12 13 13 13 13 13 13 13 12 13 12 12 12 12 12
11 11 10 10 10 10 10 11 11 11 11 11 11 10 10 10 10 10 10 10 10 11 11 11 11 11 12 12 12 12 12 12 12 12 12 12 12 12 12 12 13 12 12 12 12 12 12 11 11
11 10 10 10 10 10 11 11 11 11 11 10 10 10 10 10 10 10 10 10 10 10 10 11 11 11 11 11 11 12 11 11 12 12 12 12 12 12 12 12 12 12 12 12 12 11 11 11 11
9 11 11 11 11 11 11 12 12 11 10 10 10 10 10 10 9 10 10 10 10 10 10 10 10 11 11 11 11 11 11 11 11 11 11 12 12 12 12 12 12 12 11 11 11 11 11 11 11
11 12 12 12 11 11 11 12 13 11 10 11 10 10 10 9 9 9 10 10 10 10 10 10 10 11 11 11 11 11 11 11 11 11 11 11 11 11 11 11 11 11 11 11 11 11 11 10 10
12 12 12 12 11 11 11 11 12 11 11 11 11 10 10 9 9 9 9 10 10 10 10 10 10 10 10 10 10 10 10 10 10 10 10 11 11 11 11 11 11 11 11 11 11 10 10 10 10
11 11 11 11 11 11 11 11 12 11 11 11 11 10 10 9 9 9 9 9 10 10 10 10 10 10 10 10 10 10 10 10 10 10 10 10 10 10 10 10 10 10 10 10 10 10 10 10 10
10 10 11 11 11 10 11 11 12 12 11 11 11 10 10 9 9 9 9 9 9 9 9 9 9 9 10 10 9 9 9 9 9 10 10 10 10 10 10 10 10 10 10 10 10 10 10 9 9
10 10 11 11 10 10 10 11 12 12 11 10 10 10 10 9 9 9 9 9 9 9 9 9 9 9 9 9 9 9 9 9 9 9 9 9 9 9 9 9 10 10 9 9 9 9 9 9 9
11 11 11 10 10 10 10 12 12 12 11 10 10 10 9 9 9 9 9 9 9 9 9 9 9 9 9 9 9 9 9 9 9 9 9 9 9 9 9 9 9 9 9 9 9 9 9 9 9
11 10 9 9 10 11 10 11 12 12 12 11 10 10 9 9 9 8 8 8 9 9 9 9 9 9 9 9 9 9 9 8 8 9 9 9 9 9 9 9 9 9 9 9 9 9 8 8 8
10 9 9 9 10 10 11 10 12 12 12 11 11 10 9 9 8 8 8 9 9 9 9 9 9 9 9 8 8 8 8 8 8 8 9 9 9 9 9 9 9 8 8 8 8 8 8 8 8
9 9 9 9 10 11 10 10 12 12 11 11 11 10 9 8 8 8 8 8 8 8 9 9 9 9 8 8 8 8 8 8 8 8 8 8 8 9 8 8 8 8 8 8 8 8 8 8 8
10 10 11 11 11 11 10 10 11 12 11 10 10 9 8 8 8 8 8 8 8 8 8 8 8 8 8 8 8 8 8 8 8 8 8 8 8 8 8 8 8 8 8 8 8 8 8 7 7
9 10 11 11 12 12 10 11 12 11 10 9 9 9 8 8 8 8 8 8 8 8 8 8 8 8 8 8 8 8 7 7 8 8 8 8 8 8 8 8 8 7 7 7 7 7 7 7 7
10 9 9 10 10 10 12 11 11 11 10 9 9 8 8 8 8 8 8 8 8 8 8 8 8 8 8 8 8 7 7 7 7 7 7 7 7 7 7 7 7 7 7 7 7 7 6 6 6
9 9 9 9 10 11 12 11 11 10 10 9 9 8 8 7 7 7 8 7 7 7 7 7 7 7 8 7 7 7 7 7 7 7 7 7 7 7 7 7 7 6 6 6 6 6 6 6 6
8 8 9 10 10 10 11 12 11 10 9 9 9 8 7 7 7 7 7 7 7 7 7 7 7 7 7 7 7 7 7 7 7 7 7 7 7 7 6 6 6 6 6 6 6 6 6 6 6
9 9 9 10 9 9 10 11 10 9 9 8 8 7 7 6 6 7 7 7 7 7 7 7 7 7 7 7 7 7 7 7 7 7 7 6 6 6 6 6 6 6 6 6 6 6 6 5 5
Wind_Speed
9 6 3 2 4 4 8 5 3 2 1 1 3 4 5 5 4 1 4 3 2 2 5 8 8 9 9 9 10 10 10 10 10 10 10 10 9 9 9 9 8 8 8 9 9 9 9 9 9
7 4 2 2 5 7 7 5 5 3 3 3 3 4 5 4 2 3 2 3 2 2 5 7 8 9 10 10 10 10 10 10 10 10 10 9 9 9 9 8 8 8 8 8 9 9 9 10 10
4 2 1 2 4 7 6 2 2 2 3 3 2 3 3 3 2 2 4 3 1 2 4 6 8 9 10 11 11 10 10 9 9 9 9 9 9 8 8 8 8 8 8 8 8 9 9 9 9
2 1 1 3 6 5 4 1 1 3 1 2 3 3 2 1 3 3 3 2 1 2 4 6 7 9 10 11 11 11 10 9 9 9 9 8 8 8 8 8 8 8 8 8 9 9 9 9 9
1 1 3 4 6 4 3 3 4 5 3 3 4 5 3 1 2 2 2 2 1 2 3 5 7 9 10 11 11 11 10 9 9 8 8 8 8 8 8 8 8 8 8 8 8 9 9 8 8
1 1 3 5 6 4 3 4 5 6 5 5 5 6 3 1 2 3 2 2 1 2 3 5 6 7 9 11 11 10 10 9 9 8 8 7 8 8 7 7 8 8 8 8 8 8 8 8 8
0 1 3 4 5 4 3 3 5 6 7 6 4 5 3 1 3 4 3 2 1 2 3 5 6 7 8 9 10 10 10 9 9 9 8 7 7 7 7 6 7 7 7 7 7 8 8 8 8
1 1 2 3 5 4 2 2 4 6 7 4 3 5 4 4 5 4 3 2 1 1 3 4 6 7 8 8 9 10 9 9 9 9 8 8 7 7 6 6 6 6 6 7 7 8 8 8 8
0 1 3 3 4 3 2 4 4 5 6 6 5 6 7 6 5 4 3 2 1 1 1 3 5 5 6 6 8 9 9 9 9 8 8 6 6 6 6 6 6 6 6 7 8 8 8 8 8
0 1 2 2 4 5 6 7 6 5 7 8 7 7 6 5 4 4 4 3 3 2 2 2 4 5 5 5 6 7 7 7 6 6 6 5 5 4 5 7 6 6 6 7 7 8 7 5 6
0 1 2 4 5 7 8 8 6 8 9 9 10 9 7 6 6 6 6 5 4 3 2 1 3 5 5 4 5 4 5 5 5 5 5 5 5 4 4 5 5 5 5 5 6 6 5 4 4
1 2 4 5 6 7 8 8 7 9 11 10 10 9 8 7 7 7 6 5 4 3 3 2 3 4 5 4 4 4 4 4 4 4 4 4 3 3 3 3 3 4 4 4 4 4 5 5 5
2 3 5 7 8 9 9 10 10 11 12 11 9 8 8 8 8 7 6 5 4 3 3 2 3 5 5 5 3 4 3 3 4 4 4 4 3 3 3 3 3 3 3 4 4 4 5 5 5
2 5 7 9 8 6 8 10 8 9 8 7 7 7 7 8 8 7 6 5 4 4 4 3 4 5 6 4 4 3 4 4 4 4 4 5 4 4 3 3 3 3 3 3 4 5 4 4 4
3 4 5 4 5 4 7 8 6 8 7 8 8 7 7 6 6 6 5 6 5 5 4 4 4 5 6 5 5 4 4 4 3 4 4 4 4 5 4 3 3 3 3 3 4 4 4 3 4
3 3 3 3 5 4 5 8 7 6 6 7 7 5 5 4 4 4 4 5 4 4 4 4 3 5 5 5 4 3 3 4 3 3 4 4 4 5 4 3 3 3 3 3 3 3 4 3 3
1 4 6 6 4 5 5 9 9 7 7 7 6 5 4 4 4 4 3 3 3 4 4 4 4 5 5 4 4 4 3 3 3 3 3 4 5 5 4 3 3 4 3 3 3 3 3 3 3
4 6 6 7 6 7 8 10 11 9 7 7 6 5 4 4 3 3 3 3 3 3 4 4 4 5 5 4 4 3 3 2 3 3 3 4 4 5 4 3 4 4 3 3 3 3 3 3 3
5 6 9 8 7 7 9 11 11 10 7 6 6 5 4 3 2 2 1 2 2 3 4 4 4 4 4 4 4 3 3 2 2 2 4 4 4 4 4 3 4 3 3 3 4 3 4 3 3
5 7 7 7 6 6 8 10 8 7 6 6 5 5 4 3 1 1 1 2 2 3 3 4 4 4 4 4 3 2 2 2 1 2 3 4 5 4 4 4 3 3 3 4 4 3 3 2 3
5 6 7 8 9 4 6 5 3 5 5 5 4 4 3 2 2 1 0 1 2 3 3 4 5 4 4 4 3 3 2 1 1 2 2 3 4 4 4 4 3 3 4 4 4 4 4 3 3
5 4 7 8 6 3 4 4 4 5 5 6 6 5 4 3 1 0 1 2 4 3 3 4 5 4 4 4 5 6 4 3 3 3 2 3 3 3 4 4 4 4 3 4 4 4 3 4 3
5 6 7 6 4 4 3 3 4 5 6 7 7 6 5 4 2 1 2 3 3 3 4 4 5 5 5 5 5 5 4 3 2 3 3 3 3 3 3 4 4 4 3 4 4 4 3 3 4
5 4 4 3 3 3 3 3 4 4 6 7 7 7 5 4 3 2 1 1 2 2 3 4 5 4 4 5 5 6 5 4 4 4 4 3 3 3 4 4 4 4 3 4 4 4 5 4 4
3 3 2 1 1 2 1 3 3 5 6 6 7 7 6 4 3 2 1 0 0 1 3 4 5 5 5 5 6 6 6 6 6 5 4 4 3 3 4 4 4 4 4 4 4 5 5 5 5
2 2 2 3 4 4 2 3 2 4 5 6 6 6 5 4 3 2 1 1 1 1 2 3 5 5 5 6 6 5 5 4 4 4 4 4 4 4 4 4 4 4 4 5 5 4 5 5 5
1 0 2 2 4 5 3 3 3 2 4 7 8 8 7 5 4 3 2 1 1 2 2 3 4 5 5 5 5 5 6 5 4 4 4 4 3 3 4 5 5 5 5 5 5 5 5 5 5
1 1 1 2 3 4 5 4 3 3 5 7 8 8 8 7 6 4 3 2 1 1 1 2 3 4 4 4 5 5 5 5 5 5 5 5 4 4 4 5 5 5 5 5 5 5 5 6 6
2 2 1 1 3 4 5 3 1 2 3 5 7 8 8 8 6 5 3 2 1 1 1 2 2 3 3 4 4 5 5 5 5 5 5 5 5 5 5 5 5 5 6 6 6 6 6 7 6
3 3 3 3 3 4 5 4 1 1 3 5 7 8 8 7 6 4 3 3 2 1 2 2 2 3 3 3 4 4 4 5 5 6 5 5 5 5 5 5 6 6 6 6 7 7 7 8 8
Wind_Direction
333 328 297 236 208 219 234 225 223 203 203 325 299 271 266 261 265 330 36 29 12 169 169 167 170 163 156 152 145 141 142 142 138 136 133 130 127 123 121 114 110 106 106 103 100 97 96 98 97
334 320 248 214 228 231 230 225 223 238 319 322 283 260 255 251 320 351 14 3 345 172 171 169 170 170 160 152 145 140 141 142 140 136 136 134 130 124 121 120 114 111 108 103 101 99 98 97 99
327 334 224 195 224 243 238 205 249 290 310 296 289 273 277 280 331 344 1 337 310 176 171 162 168 172 162 154 148 145 139 137 139 139 136 135 132 128 125 122 117 113 110 107 107 106 103 100 97
301 180 180 219 224 236 256 246 310 292 268 303 297 273 255 336 324 336 345 321 263 181 171 156 159 168 164 157 151 148 143 138 136 138 139 137 135 133 128 121 117 114 112 111 110 109 107 104 100
341 211 194 217 237 232 248 282 280 279 281 296 296 284 272 317 333 334 340 317 231 191 172 157 152 161 164 159 154 148 146 141 138 136 135 138 137 131 127 124 119 117 116 115 113 112 110 107 104
115 216 221 233 231 232 248 268 266 270 278 287 289 281 271 329 351 341 326 313 248 201 180 166 155 154 159 160 154 150 149 143 138 136 136 133 133 129 125 124 122 120 119 116 116 116 113 109 104
131 207 234 241 243 246 258 267 266 278 277 284 289 274 259 292 339 328 314 309 284 210 183 169 166 158 151 154 155 151 149 144 139 134 129 125 126 125 124 123 125 123 121 121 119 116 113 111 107
29 162 213 230 244 257 268 264 277 280 284 302 266 263 273 317 322 317 314 308 313 232 191 174 168 161 159 156 149 147 145 138 131 127 123 122 123 125 124 128 125 125 124 124 122 118 114 110 107
288 208 236 237 249 270 282 279 285 282 272 271 260 275 295 303 301 298 295 299 295 289 198 183 170 157 150 151 148 146 141 133 132 128 125 135 144 142 136 118 117 120 123 126 125 121 117 116 110
348 224 258 262 269 283 291 288 292 278 273 272 270 279 290 278 272 267 259 260 264 269 256 204 183 162 144 137 140 146 147 147 149 145 145 147 144 136 129 115 113 117 120 123 124 125 130 136 123
95 227 274 276 279 284 285 288 281 273 278 282 285 291 294 279 267 261 259 252 250 252 243 228 196 164 146 140 138 133 140 149 150 149 151 146 142 138 135 136 134 134 140 136 136 144 134 128 116
216 242 261 283 292 282 281 284 281 269 278 292 290 288 281 275 264 258 256 260 245 233 228 215 198 168 147 142 138 140 140 144 145 148 151 150 145 146 141 138 142 147 145 143 145 140 133 127 123
248 263 275 284 288 279 276 273 279 278 279 286 284 276 266 264 266 267 256 251 244 226 223 207 186 171 154 145 141 144 142 136 140 147 148 153 152 149 145 137 140 144 148 148 144 144 137 130 124
295 279 284 289 291 281 278 280 272 275 285 286 279 272 266 262 260 259 256 244 237 226 214 208 182 170 156 152 152 147 138 136 140 145 152 154 148 146 141 134 136 138 151 153 153 147 140 133 127
284 282 284 282 294 295 292 285 267 280 286 285 283 279 272 263 258 253 254 245 233 222 201 191 184 171 159 155 154 147 143 144 149 142 152 154 153 153 147 143 143 140 146 151 150 145 138 134 134
264 274 301 316 312 303 290 285 305 309 289 285 288 288 277 269 261 257 253 243 229 211 195 183 174 170 157 153 152 147 145 144 148 148 153 160 159 159 149 150 147 140 142 145 147 156 147 146 151
308 311 308 312 318 308 285 285 305 314 298 292 294 292 286 279 265 260 255 245 218 195 181 170 172 166 154 144 143 136 140 153 156 159 158 163 160 164 156 156 151 154 151 154 151 156 157 153 155
311 308 298 303 318 310 292 288 301 316 307 298 300 300 287 274 265 263 249 239 201 174 164 160 169 162 148 140 140 134 146 158 155 164 169 172 167 169 162 157 159 164 165 166 162 152 153 157 159
286 288 293 296 309 306 294 295 303 313 315 310 308 307 294 283 286 288 240 207 178 151 154 153 160 162 154 152 158 163 168 169 170 165 171 175 172 174 169 165 168 174 177 176 169 157 151 158 165
273 287 304 303 315 305 301 300 306 317 323 326 321 312 301 297 322 328 232 179 168 166 167 157 164 168 170 170 165 168 157 167 173 168 174 179 176 176 177 176 179 180 180 176 175 170 174 176 195
282 283 300 304 311 284 296 296 339 345 345 351 347 331 311 289 279 258 198 186 174 172 176 170 164 174 177 167 152 140 134 146 183 193 185 180 177 177 181 184 186 185 188 187 187 192 194 191 195
289 289 289 294 301 307 325 297 327 341 351 359 359 358 346 338 302 202 208 221 206 188 172 171 160 168 176 174 182 183 191 197 210 201 187 172 174 178 181 186 190 188 190 191 194 199 208 201 199
284 307 284 277 276 281 300 276 307 350 342 344 346 351 347 334 322 276 226 223 212 194 181 177 163 170 180 184 189 193 200 201 195 186 183 184 178 182 183 189 191 193 196 198 198 195 202 210 210
284 285 262 240 244 267 292 269 301 348 332 331 340 349 349 342 343 329 295 206 188 187 183 177 167 178 186 190 193 198 196 192 191 195 192 196 191 186 191 193 197 200 200 201 204 200 199 208 209
321 301 299 281 269 291 316 261 280 337 346 335 331 339 345 352 354 352 4 18 167 178 185 181 181 187 193 198 204 207 205 201 204 202 202 200 199 201 199 197 201 205 205 202 205 206 202 203 205
319 315 325 308 303 303 286 265 284 353 356 349 348 348 354 357 357 351 341 277 237 225 208 195 194 198 201 203 209 212 209 209 211 208 206 209 209 206 197 197 204 210 210 207 208 211 207 205 205
281 251 310 274 282 280 271 283 282 354 7 4 5 5 1 354 353 353 346 306 258 234 226 221 213 207 207 207 209 212 212 214 215 213 213 217 216 206 198 199 205 210 213 215 214 217 212 211 211
292 178 221 262 304 292 285 270 268 309 341 355 357 353 347 345 344 347 339 310 279 254 232 226 226 220 214 209 212 217 218 217 217 216 217 218 218 212 208 210 212 214 217 219 221 223 218 217 215
179 187 215 242 275 287 294 290 323 296 330 340 340 340 339 336 333 332 326 312 297 288 223 223 230 229 219 215 219 221 223 223 221 219 220 220 217 214 216 220 221 223 224 223 223 224 217 220 221
225 218 217 265 271 263 276 283 39 326 330 335 338 338 337 334 330 328 324 321 319 307 278 256 244 233 232 229 227 226 223 222 223 224 225 221 221 220 222 224 228 231 230 226 225 225 220 220 223
Height
1526 1526 1527 1530 1529 1525 1523 1524 1526 1527 1527 1530 1530 1529 1526 1525 1524 1528 1528 1525 1525 1526 1527 1528 1530 1531 1532 1533 1534 1535 1536 1537 1538 1539 1539 1540 1540 1540 1541 1541 1541 1541 1541 1541 1541 1541 1541 1541 1541
1526 1527 1530 1530 1524 1522 1523 1524 1527 1528 1530 1531 1530 1529 1527 1526 1527 1527 1525 1524 1525 1526 1527 1528 1529 1531 1532 1533 1534 1535 1536 1537 1538 1539 1539 1540 1540 1540 1541 1541 1541 1541 1541 1541 1541 1541 1542 1542 1542
1527 1528 1530 1526 1523 1520 1522 1527 1528 1530 1531 1531 1530 1529 1528 1527 1527 1526 1525 1524 1525 1526 1527 1527 1529 1530 1532 1533 1534 1535 1536 1537 1538 1538 1539 1540 1540 1540 1541 1541 1541 1541 1541 1541 1542 1542 1542 1542 1542
1528 1530 1530 1526 1524 1525 1526 1528 1531 1530 1531 1531 1530 1528 1528 1527 1526 1525 1524 1524 1524 1525 1526 1527 1528 1530 1531 1532 1533 1534 1535 1536 1537 1538 1539 1539 1540 1540 1540 1541 1541 1541 1541 1542 1542 1542 1542 1542 1543
1529 1529 1527 1525 1525 1527 1530 1532 1532 1530 1529 1530 1530 1527 1527 1527 1525 1524 1524 1523 1524 1525 1525 1526 1527 1529 1530 1532 1533 1534 1535 1536 1537 1538 1538 1539 1539 1540 1540 1541 1541 1541 1541 1542 1542 1542 1542 1542 1543
1531 1529 1525 1523 1525 1528 1531 1532 1532 1530 1529 1530 1529 1527 1526 1525 1524 1523 1523 1523 1523 1524 1524 1525 1526 1528 1529 1531 1532 1533 1534 1535 1536 1537 1538 1538 1539 1539 1540 1540 1541 1541 1541 1541 1542 1542 1542 1542 1543
1531 1528 1526 1526 1527 1528 1530 1532 1531 1529 1528 1529 1529 1527 1524 1525 1523 1522 1522 1522 1522 1523 1523 1524 1525 1526 1528 1529 1531 1532 1533 1534 1535 1536 1537 1537 1538 1539 1539 1540 1540 1540 1541 1541 1541 1542 1542 1542 1543
1532 1532 1529 1529 1529 1528 1531 1532 1531 1530 1528 1528 1528 1526 1524 1524 1522 1521 1521 1521 1521 1521 1522 1523 1524 1525 1526 1528 1529 1531 1532 1533 1534 1535 1536 1537 1537 1538 1538 1539 1539 1540 1540 1540 1541 1541 1542 1542 1542
1533 1533 1529 1529 1530 1529 1531 1531 1530 1530 1528 1527 1526 1525 1523 1522 1520 1520 1519 1519 1519 1519 1520 1521 1522 1523 1524 1526 1527 1529 1531 1532 1533 1534 1535 1536 1537 1537 1538 1538 1539 1539 1539 1540 1540 1541 1541 1542 1542
1534 1531 1531 1532 1532 1531 1531 1530 1530 1528 1525 1524 1524 1522 1521 1520 1518 1518 1517 1517 1517 1517 1518 1519 1520 1521 1522 1524 1525 1527 1529 1531 1532 1533 1534 1534 1535 1536 1537 1537 1538 1538 1539 1539 1540 1540 1541 1541 1542
1534 1533 1534 1534 1533 1533 1531 1530 1529 1527 1523 1522 1521 1520 1519 1518 1517 1516 1515 1515 1515 1515 1516 1517 1518 1519 1520 1522 1523 1525 1527 1529 1530 1531 1532 1533 1534 1535 1536 1536 1537 1538 1538 1539 1539 1540 1540 1541 1541
1536 1535 1535 1534 1533 1532 1530 1528 1527 1525 1522 1521 1519 1518 1516 1515 1514 1513 1513 1513 1513 1513 1514 1514 1516 1517 1518 1520 1522 1524 1525 1527 1528 1529 1531 1532 1533 1533 1534 1535 1536 1536 1537 1538 1538 1539 1539 1540 1541
1535 1535 1534 1533 1532 1530 1529 1527 1525 1522 1520 1518 1516 1515 1514 1512 1512 1511 1511 1511 1511 1511 1512 1512 1514 1515 1516 1518 1520 1522 1523 1525 1527 1528 1529 1530 1531 1532 1533 1534 1535 1535 1536 1537 1537 1538 1539 1539 1540
1535 1534 1533 1531 1530 1528 1526 1523 1522 1518 1517 1515 1513 1512 1511 1510 1509 1509 1508 1508 1509 1509 1510 1511 1512 1513 1515 1517 1519 1520 1522 1523 1525 1526 1527 1528 1530 1530 1531 1532 1533 1534 1535 1536 1536 1537 1538 1538 1539
1535 1533 1530 1528 1528 1526 1525 1518 1517 1516 1515 1512 1510 1509 1508 1507 1506 1506 1506 1506 1506 1507 1508 1509 1510 1511 1513 1515 1517 1518 1520 1522 1523 1524 1525 1527 1528 1529 1529 1530 1531 1532 1533 1534 1535 1536 1536 1537 1538
1534 1530 1526 1526 1526 1525 1526 1515 1513 1513 1512 1510 1508 1506 1506 1505 1504 1504 1504 1504 1504 1505 1506 1506 1508 1509 1511 1513 1515 1517 1518 1520 1521 1522 1523 1525 1526 1527 1528 1529 1530 1531 1532 1533 1534 1534 1535 1536 1537
1528 1528 1525 1524 1525 1524 1522 1515 1511 1511 1510 1507 1506 1504 1503 1502 1502 1502 1502 1502 1502 1503 1504 1505 1506 1507 1508 1511 1513 1515 1516 1518 1520 1521 1522 1523 1524 1525 1526 1527 1528 1529 1530 1531 1532 1533 1534 1534 1535
1530 1528 1526 1524 1523 1523 1519 1513 1509 1508 1507 1505 1504 1503 1501 1500 1500 1500 1500 1500 1500 1501 1502 1503 1504 1505 1507 1509 1511 1513 1515 1516 1518 1518 1520 1521 1522 1523 1524 1525 1526 1527 1529 1530 1530 1531 1532 1533 1533
1532 1530 1527 1524 1523 1522 1516 1511 1507 1506 1505 1503 1501 1501 1500 1499 1499 1498 1497 1498 1498 1499 1500 1501 1503 1504 1505 1507 1509 1511 1512 1514 1515 1516 1517 1519 1520 1521 1522 1523 1525 1526 1527 1527 1529 1529 1530 1531 1532
1532 1529 1524 1522 1523 1521 1515 1510 1505 1504 1503 1502 1501 1499 1498 1498 1497 1497 1496 1496 1496 1497 1498 1500 1502 1503 1504 1506 1508 1509 1511 1512 1513 1514 1515 1517 1518 1519 1520 1521 1523 1524 1524 1525 1526 1528 1528 1529 1530
1528 1526 1524 1524 1521 1518 1516 1506 1502 1502 1502 1501 1500 1498 1498 1497 1496 1495 1495 1495 1495 1496 1497 1498 1501 1502 1503 1505 1507 1508 1509 1510 1511 1512 1513 1514 1515 1517 1518 1519 1520 1521 1522 1523 1524 1525 1526 1526 1527
1526 1526 1527 1525 1520 1516 1517 1511 1501 1501 1500 1499 1499 1498 1496 1496 1495 1494 1494 1495 1495 1495 1496 1497 1499 1501 1503 1504 1505 1506 1507 1508 1509 1510 1510 1512 1513 1514 1516 1517 1518 1518 1519 1520 1521 1522 1523 1524 1524
1527 1528 1526 1524 1520 1517 1514 1513 1502 1500 1498 1498 1498 1498 1496 1495 1494 1494 1493 1494 1494 1494 1495 1497 1498 1500 1502 1502 1504 1505 1506 1506 1507 1508 1508 1509 1511 1512 1513 1514 1515 1516 1516 1517 1518 1519 1520 1521 1521
1529 1527 1524 1522 1518 1515 1515 1513 1503 1499 1499 1498 1498 1497 1496 1495 1494 1493 1493 1493 1493 1494 1495 1496 1497 1499 1500 1501 1502 1503 1504 1504 1505 1506 1506 1507 1508 1509 1510 1511 1512 1513 1513 1514 1515 1516 1516 1517 1518
1528 1523 1517 1514 1512 1509 1515 1512 1505 1500 1501 1500 1499 1498 1497 1495 1493 1492 1492 1491 1491 1492 1493 1494 1495 1497 1498 1499 1500 1501 1502 1502 1503 1503 1504 1504 1505 1506 1507 1508 1508 1509 1510 1511 1512 1512 1513 1514 1514
1528 1525 1522 1519 1511 1506 1511 1507 1502 1502 1503 1501 1499 1498 1497 1495 1494 1492 1491 1491 1491 1491 1492 1493 1494 1495 1496 1497 1498 1499 1499 1500 1500 1501 1501 1502 1502 1503 1504 1504 1505 1506 1507 1507 1508 1509 1509 1510 1510
1526 1526 1527 1525 1520 1516 1504 1504 1501 1502 1502 1501 1499 1497 1496 1495 1493 1492 1491 1491 1491 1491 1491 1492 1492 1493 1494 1495 1496 1497 1497 1497 1498 1498 1499 1499 1499 1500 1501 1501 1502 1502 1503 1504 1504 1505 1505 1506 1507
1530 1528 1527 1524 1520 1509 1501 1500 1499 1500 1500 1500 1499 1498 1496 1494 1492 1491 1491 1490 1490 1490 1490 1491 1491 1492 1492 1493 1494 1494 1495 1495 1495 1496 1496 1497 1497 1497 1498 1498 1499 1499 1500 1500 1500 1501 1502 1502 1503
1529 1528 1525 1522 1521 1514 1504 1499 1498 1499 1501 1501 1500 1498 1496 1494 1492 1490 1490 1490 1489 1489 1489 1489 1489 1490 1490 1491 1491 1492 1492 1493 1493 1493 1493 1494 1494 1494 1495 1495 1495 1495 1496 1496 1496 1497 1497 1498 1499
1525 1524 1523 1521 1520 1518 1511 1503 1500 1501 1501 1501 1500 1498 1496 1494 1491 1490 1489 1488 1487 1487 1487 1487 1487 1488 1488 1489 1489 1489 1489 1490 1490 1490 1491 1491 1491 1491 1491 1491 1491 1491 1491 1492 1492 1492 1493 1493 1494